Date String (YYYY-MM-DD hh:mm:ss) UTC,Instrument flags,Ambient pressure (hPa),Sample flow (lpm),Bypass flow (lpm),Sample temperature (°C),Ambient temperature (°C),ASC tube jacket temperature (°C),LED temperature (°C),Box temperature (°C),Sample RH (%),Span deviation,Mass concentration (μg/m³),Mass concentration (μg/m³),Mass concentration (μg/m³)
DateTimeUTC,F1_M11,P_M11,Q1_M11,Q2_M11,T1_M11,T2_M11,T3_M11,T4_M11,T5_M11,U1_M11,ZSPAN_M11,X2_M11,X0_M11,X1_M11
2022-01-28 18:00:00,,0835.5,5.01,0.00,24.4,23.7,00.0,33.2,26.3,05.7,0000.0,0000.85,0002.27,0000.69
2022-01-28 18:01:00,,0835.5,5.01,0.00,24.4,23.7,00.0,33.2,26.3,05.6,0000.0,0000.86,0002.30,0000.70
2022-01-28 18:02:00,,0835.5,4.99,0.00,24.4,23.7,00.0,33.3,26.4,05.3,0000.0,0000.91,0002.52,0000.70
2022-01-28 18:03:00,,0835.5,5.00,0.00,24.5,23.8,00.0,33.3,26.4,05.4,0000.0,0000.94,0002.67,0000.71
2022-01-28 18:04:00,,0835.5,5.01,0.00,24.5,23.8,00.0,33.3,26.4,05.2,0000.0,0000.97,0002.80,0000.72
2022-01-28 18:05:00,,0835.4,5.00,0.00,24.5,23.8,00.0,33.3,26.4,04.9,0000.0,0001.00,0002.80,0000.74
2022-01-28 18:06:00,,0835.4,4.99,0.00,24.5,23.8,00.0,33.3,26.4,04.9,0000.0,0001.02,0001.92,0000.76
2022-01-28 18:07:00,,0835.4,4.99,0.00,24.5,23.8,00.0,33.3,26.4,04.8,0000.0,0001.07,0001.99,0000.78
2022-01-28 18:08:00,,0835.3,4.99,0.00,24.5,23.8,00.0,33.4,26.4,04.9,0000.0,0001.10,0002.36,0000.79
2022-01-28 18:09:00,,0835.3,5.02,0.00,24.6,23.8,00.0,33.4,26.4,04.8,0000.0,0001.10,0003.04,0000.79
2022-01-28 18:10:00,,0835.3,4.99,0.00,24.6,23.8,00.0,33.4,26.4,04.9,0000.0,0001.08,0002.94,0000.78
2022-01-28 18:11:00,,0835.3,4.99,0.00,24.6,23.8,00.0,33.4,26.4,04.9,0000.0,0001.12,0003.09,0000.79
2022-01-28 18:12:00,,0835.3,4.99,0.00,24.6,23.8,00.0,33.4,26.4,04.9,0000.0,0001.17,0003.21,0000.82
2022-01-28 18:13:00,,0835.3,5.00,0.00,24.6,23.9,00.0,33.4,26.5,04.8,0000.0,0001.17,0003.17,0000.84
2022-01-28 18:14:00,,0835.3,5.01,0.00,24.6,23.9,00.0,33.4,26.5,04.7,0000.0,0001.20,0003.14,0000.84
2022-01-28 18:15:00,,0835.3,5.00,0.00,24.6,23.9,00.0,33.5,26.5,04.7,0000.0,0001.20,0003.05,0000.85
2022-01-28 18:16:00,,0835.3,5.00,0.00,24.6,23.9,00.0,33.5,26.5,04.9,0000.0,0001.20,0002.98,0000.86
2022-01-28 18:17:00,,0835.2,5.00,0.00,24.6,23.9,00.0,33.5,26.5,04.8,0000.0,0001.22,0003.06,0000.87
2022-01-28 18:18:00,,0835.2,5.01,0.00,24.7,23.9,00.0,33.5,26.6,04.8,0000.0,0001.19,0003.07,0000.87
2022-01-28 18:19:00,,0835.2,4.99,0.00,24.7,23.9,00.0,33.5,26.5,04.9,0000.0,0001.15,0003.01,0000.87
2022-01-28 18:20:00,,0835.1,5.02,0.00,24.7,23.9,00.0,33.5,26.6,05.2,0000.0,0001.19,0002.21,0000.89
2022-01-28 18:21:00,,0835.2,5.00,0.00,24.7,24.0,00.0,33.5,26.6,05.0,0000.0,0001.25,0002.51,0000.92
2022-01-28 18:22:00,,0835.2,4.99,0.00,24.7,24.0,00.0,33.5,26.6,04.9,0000.0,0001.30,0003.72,0000.94
2022-01-28 18:23:00,,0835.1,5.00,0.00,24.7,24.0,00.0,33.6,26.6,05.0,0000.0,0001.28,0004.61,0000.94
2022-01-28 18:24:00,,0835.1,4.99,0.00,24.7,24.0,00.0,33.6,26.6,05.1,0000.0,0001.31,0005.03,0000.96
2022-01-28 18:25:00,,0835.1,5.01,0.00,24.8,24.0,00.0,33.6,26.6,05.3,0000.0,0001.31,0005.01,0000.99
2022-01-28 18:26:00,,0835.1,5.00,0.00,24.8,24.0,00.0,33.6,26.6,05.2,0000.0,0001.35,0005.05,0001.02
2022-01-28 18:27:00,,0835.1,5.00,0.00,24.8,24.0,00.0,33.6,26.6,05.3,0000.0,0001.45,0005.24,0001.05
2022-01-28 18:28:00,,0835.0,4.99,0.00,24.8,24.0,00.0,33.6,26.7,05.2,0000.0,0001.54,0005.64,0001.08
2022-01-28 18:29:00,,0835.0,5.01,0.00,24.8,24.1,00.0,33.6,26.7,05.2,0000.0,0001.63,0005.84,0001.11
2022-01-28 18:30:00,,0835.0,5.00,0.00,24.8,24.1,00.0,33.7,26.7,05.7,0000.0,0001.70,0006.10,0001.14
2022-01-28 18:31:00,,0835.0,4.99,0.00,24.8,24.1,00.0,33.7,26.7,05.5,0000.0,0001.79,0006.33,0001.15
2022-01-28 18:32:00,,0835.0,5.00,0.00,24.9,24.1,00.0,33.7,26.7,05.5,0000.0,0001.81,0006.29,0001.15
2022-01-28 18:33:00,,0835.0,5.00,0.00,24.9,24.1,00.0,33.7,26.7,05.4,0000.0,0001.81,0004.84,0001.16
2022-01-28 18:34:00,,0834.9,4.99,0.00,24.9,24.1,00.0,33.7,26.7,05.9,0000.0,0001.85,0004.28,0001.18
2022-01-28 18:35:00,,0835.0,5.00,0.00,24.9,24.2,00.0,33.7,26.8,05.4,0000.0,0001.89,0003.73,0001.18
2022-01-28 18:36:00,,0835.0,5.01,0.00,24.9,24.2,00.0,33.7,26.8,05.2,0000.0,0001.92,0004.00,0001.17
2022-01-28 18:37:00,,0835.0,5.00,0.00,24.9,24.2,00.0,33.8,26.8,05.0,0000.0,0001.90,0004.32,0001.16
2022-01-28 18:38:00,,0834.9,5.00,0.00,24.9,24.2,00.0,33.8,26.8,05.4,0000.0,0001.88,0004.72,0001.15
2022-01-28 18:39:00,,0835.0,5.01,0.00,25.0,24.2,00.0,33.8,26.8,05.5,0000.0,0001.82,0004.46,0001.13
2022-01-28 18:40:00,,0834.9,5.00,0.00,25.0,24.2,00.0,33.8,26.8,05.2,0000.0,0001.75,0004.21,0001.11
2022-01-28 18:41:00,,0835.0,5.00,0.00,25.0,24.2,00.0,33.8,26.8,05.6,0000.0,0001.75,0004.09,0001.12
2022-01-28 18:42:00,,0835.0,5.00,0.00,25.0,24.2,00.0,33.8,26.8,05.5,0000.0,0001.69,0003.93,0001.13
2022-01-28 18:43:00,,0835.0,4.99,0.00,25.0,24.2,00.0,33.8,26.8,05.5,0000.0,0001.72,0003.96,0001.15
2022-01-28 18:44:00,,0834.9,5.01,0.00,25.0,24.2,00.0,33.9,26.9,05.8,0000.0,0001.72,0003.94,0001.16
2022-01-28 18:45:00,,0835.0,5.00,0.00,25.0,24.2,00.0,33.9,26.9,05.6,0000.0,0001.75,0004.11,0001.17
2022-01-28 18:46:00,,0834.9,5.00,0.00,25.0,24.2,00.0,33.9,26.8,05.8,0000.0,0001.76,0004.84,0001.19
2022-01-28 18:47:00,,0835.0,5.00,0.00,25.0,24.2,00.0,33.9,26.9,05.9,0000.0,0001.80,0005.41,0001.23
2022-01-28 18:48:00,,0835.0,5.00,0.00,25.0,24.2,00.0,33.9,26.9,05.9,0000.0,0001.83,0005.22,0001.28
2022-01-28 18:49:00,,0835.0,5.01,0.00,25.0,24.2,00.0,33.9,26.9,05.4,0000.0,0001.91,0004.85,0001.34
2022-01-28 18:50:00,,0834.9,4.99,0.00,25.0,24.2,00.0,33.9,26.9,05.5,0000.0,0002.03,0005.04,0001.41
2022-01-28 18:51:00,,0835.0,4.99,0.00,25.1,24.3,00.0,33.9,26.9,05.6,0000.0,0002.17,0005.50,0001.49
2022-01-28 18:52:00,,0834.9,5.00,0.00,25.1,24.3,00.0,33.9,26.9,05.7,0000.0,0002.26,0006.05,0001.57
2022-01-28 18:53:00,,0835.0,5.01,0.00,25.1,24.3,00.0,33.9,26.9,05.9,0000.0,0002.40,0006.27,0001.68
2022-01-28 18:54:00,,0834.9,5.00,0.00,25.1,24.3,00.0,33.9,26.9,06.2,0000.0,0002.53,0006.56,0001.81
2022-01-28 18:55:00,,0834.9,4.99,0.00,25.1,24.3,00.0,33.9,26.9,06.2,0000.0,0002.81,0007.89,0002.01
2022-01-28 18:56:00,,0834.9,5.00,0.00,25.1,24.3,00.0,34.0,26.9,06.0,0000.0,0003.01,0008.12,0002.19
2022-01-28 18:57:00,,0834.9,5.00,0.00,25.1,24.3,00.0,34.0,26.9,06.4,0000.0,0003.16,0008.22,0002.35
2022-01-28 18:58:00,,0834.9,5.00,0.00,25.1,24.3,00.0,34.0,26.9,06.0,0000.0,0003.29,0008.03,0002.49
2022-01-28 18:59:00,,0834.8,5.01,0.00,25.1,24.2,00.0,34.0,26.9,05.9,0000.0,0003.34,0008.77,0002.59
